This demonstration page uses our WeatherBlox Daily Observations layout. Learn more.

Left ArrowRight Arrow

47.50024, -111.30081

Hourly Observations for April 18, 2016

Temp ( °F °C ) Dew Point ( °F °C ) Humidity (%) Winds ( mph kmh ) Pressure ( in mb ) Visibility ( mi km ) Precip ( " mm )
12:53 am 00:53 Clear 36 2.2 25 -3.9 64 64 E 7 11 30.49 1033 10 16 0.00 0.00
1:53 am 01:53 Clear 36 2.2 24 -4.4 62 62 ESE 6 9 30.49 1033 10 16 0.00 0.03
2:53 am 02:53 Clear 35 1.7 22 -5.6 59 59 S 5 7 30.48 1032 10 16 0.00 0.03
3:53 am 03:53 Clear 28 -2.2 22 -5.6 78 78 W 5 7 30.51 1033 10 16 0.00 0.03
4:53 am 04:53 Clear 30 -1.1 23 -5 75 75 WNW 3 6 30.50 1033 10 16 0.00 0.03
5:53 am 05:53 Clear 28 -2.2 23 -5 81 81 WSW 5 7 30.51 1033 10 16 0.00 0.00
6:53 am 06:53 Sunny 25 -3.9 21 -6.1 85 85 SSW 8 13 30.53 1034 10 16 0.00 0.00
7:53 am 07:53 Sunny 34 1.1 28 -2.2 79 79 SSW 9 15 30.52 1034 10 16 0.00 0.00
8:53 am 08:53 Sunny 40 4.4 28 -2.2 63 63 SW 7 11 30.53 1034 10 16 0.00 0.00
9:53 am 09:53 Sunny 43 6.1 26 -3.3 51 51 SSW 3 6 30.53 1034 10 16 0.00 0.00
10:53 am 10:53 Sunny 49 9.4 26 -3.3 41 41 Calm 30.51 1033 10 16 0.00 0.00
11:53 am 11:53 Sunny 53 11.7 23 -5 31 31 N 5 7 30.49 1033 10 16 0.00 0.00
12:53 pm 12:53 Sunny 54 12.2 21 -6.1 28 28 VRB 3 6 30.48 1032 10 16 0.00 0.00
1:53 pm 13:53 Sunny 57 13.9 22 -5.6 26 26 NNE 9 15 30.45 1031 10 16 0.00 0.00
2:53 pm 14:53 Sunny 57 13.9 19 -7.2 23 23 VRB 3 6 30.44 1031 10 16 0.00 0.00
3:53 pm 15:53 Sunny 61 16.1 18 -7.8 19 19 NNE 10 17 30.41 1030 10 16 0.00 0.00
4:53 pm 16:53 Sunny 61 16.1 15 -9.4 17 17 ENE 9 15 30.38 1029 10 16 0.00 0.00
5:53 pm 17:53 Sunny 59 15 15 -9.4 18 18 E 12 19 30.39 1029 10 16 0.00 0.00
6:53 pm 18:53 Sunny 57 13.9 15 -9.4 19 19 ENE 13 20 30.39 1029 10 16 0.00 0.00
7:53 pm 19:53 Sunny 52 11.1 17 -8.3 25 25 E 7 11 30.37 1029 10 16 0.00 0.00
8:53 pm 20:53 Clear 47 8.3 21 -6.1 36 36 E 5 7 30.36 1028 10 16 0.00 0.00
9:53 pm 21:53 Clear 43 6.1 24 -4.4 47 47 SE 7 11 30.37 1028 10 16 0.00 0.00
10:53 pm 22:53 Clear 45 7.2 23 -5 42 42 ESE 8 13 30.34 1027 10 16 0.00 0.00
11:53 pm 23:53 Clear 43 6.1 24 -4.4 47 47 SE 7 11 30.31 1026 10 16 0.00 0.00

Powered by AerisWeather